CDT,Max TemperatureF,Mean TemperatureF,Min TemperatureF,Max Dew PointF,MeanDew PointF,Min DewpointF,Max Humidity, Mean Humidity, Min Humidity, Max Sea Level PressureIn, Mean Sea Level PressureIn, Min Sea Level PressureIn, Max VisibilityMiles, Mean VisibilityMiles, Min VisibilityMiles, Max Wind SpeedMPH, Mean Wind SpeedMPH, Max Gust SpeedMPH,PrecipitationIn, CloudCover, Events, WindDirDegrees
2012-3-1,35,32,30,30,29,27,100,88,70,29.78,29.74,29.68,10,10,10,8,4,,0.32,8,,348
2012-3-2,35,32,28,32,29,21,100,88,64,29.75,29.64,29.54,10,6,1,14,3,22,0.19,7,Snow,248
2012-3-3,32,26,21,27,23,19,100,86,74,29.81,29.64,29.52,10,5,1,14,7,16,0.00,8,Snow,323
2012-3-4,26,16,5,18,13,3,100,80,59,29.98,29.88,29.81,10,7,1,8,4,,0.03,7,Snow,327
2012-3-5,30,14,-2,25,13,-6,100,81,64,30.17,30.08,29.93,10,9,1,16,4,21,0.00,3,Snow,197
2012-3-6,50,39,28,41,28,21,93,71,53,29.86,29.66,29.56,10,10,10,17,10,25,0.00,0,,176
2012-3-7,48,40,32,43,36,25,100,87,71,29.85,29.61,29.52,10,7,0,14,7,21,0.08,6,Rain-Snow,295
2012-3-8,32,24,17,27,17,7,86,70,43,30.21,30.05,29.90,10,9,1,26,11,36,0.00,2,Snow,305
2012-3-9,30,19,8,9,4,0,85,53,27,30.58,30.46,30.32,10,10,10,13,7,20,0.00,1,,275
2012-3-10,55,42,30,32,25,10,70,50,35,30.14,29.92,29.86,10,10,10,17,12,25,0.00,0,,221
2012-3-11,62,52,41,39,31,27,61,47,36,29.98,29.92,29.79,10,10,10,14,9,20,0.00,2,Rain,212
2012-3-12,48,44,41,45,42,32,100,92,57,29.80,29.66,29.61,10,6,1,12,4,,0.64,8,Rain,202
2012-3-13,60,46,32,37,28,18,93,57,22,30.03,29.95,29.80,10,10,7,13,8,17,0.00,0,,254
2012-3-14,69,56,44,46,40,32,81,57,40,29.90,29.80,29.73,10,10,10,12,7,16,0.00,0,,208
2012-3-15,62,47,32,28,24,19,75,41,26,30.08,30.01,29.92,10,10,10,16,4,,0.00,0,,62
2012-3-16,75,54,32,54,39,21,77,62,47,30.00,29.92,29.82,10,10,10,13,2,20,0.00,2,,178
2012-3-17,78,66,55,59,55,52,88,69,44,29.81,29.79,29.75,10,10,10,21,10,31,0.00,3,,204
2012-3-18,78,68,59,57,55,52,88,63,41,29.81,29.77,29.71,10,10,10,21,10,30,0.00,2,,194
2012-3-19,77,68,60,57,55,54,82,65,47,29.77,29.73,29.66,10,10,10,23,11,34,0.00,3,Rain,182
2012-3-20,62,58,53,59,53,50,94,80,63,29.95,29.87,29.70,10,10,10,13,6,17,0.03,7,Rain,223
2012-3-21,62,56,51,55,52,52,100,92,72,30.09,29.98,29.90,10,8,2,15,4,,0.04,8,Rain,214
2012-3-22,60,56,51,57,54,50,100,94,88,30.12,30.08,30.02,10,8,4,8,2,,0.16,8,Rain,95
2012-3-23,68,59,50,55,52,46,100,87,60,30.01,29.96,29.89,10,7,0,10,3,,0.01,7,Fog-Rain,65
2012-3-24,68,56,44,52,47,43,100,80,52,29.98,29.95,29.92,10,8,2,9,3,,0.00,6,,15
2012-3-25,53,43,33,43,29,19,93,62,26,30.26,30.17,30.06,10,10,7,12,7,17,0.00,3,,30
2012-3-26,42,37,32,25,20,14,69,53,31,30.36,30.27,30.03,10,10,7,16,9,25,0.00,8,Rain,132
2012-3-27,68,54,41,45,35,21,70,55,33,29.94,29.67,29.51,10,10,10,29,20,44,0.00,5,Rain,224
2012-3-28,51,44,37,36,32,30,75,64,47,30.07,29.94,29.73,10,10,10,23,12,32,0.00,6,,349
2012-3-29,50,39,28,37,29,27,100,67,43,30.12,30.04,29.88,10,10,10,13,3,18,0.02,2,Rain,132
2012-3-30,44,40,35,37,34,32,93,82,76,29.87,29.83,29.81,10,10,10,14,8,20,0.00,8,Rain,164
2012-3-31,46,42,37,41,37,36,93,84,76,29.90,29.84,29.73,10,9,5,14,8,21,0.00,8,,184